Location: ???????
(55.8930°N, 38.0586°E)
Time: 22:58:56
(UTC+00:00)

Cosmos 1626 - Pass Details

Date: 14 April 2024
Orbit: 408 x 412 km, 82.5° (Epoch: 23 May)

Event Time Altitude Azimuth Distance (km) Brightness Sun altitude
Rises 00:13:42 0° 132° (SE) 2,374 5.6 -16.1°
Enters shadow 01:15:06 -68° 192° (SSW) 12,265 9.1 -9.6°
Maximum altitude 01:50:52 88° 105° (ESE) 434 1.8 -5.2°
